This is the latest recevied weather packets stored in our database for station/object EA5FOG-11. If no packets are shown the sender has not sent any weather packets the latest 10 day(s).
| Time | Temp. | Humidity | Pressure | Rain* | Wind** | Luminosity | Snow |
|---|---|---|---|---|---|---|---|
| 1788522160 | 41.67° C | 34% | 963.1 hPa | - | - | - | - |
| 1788521259 | 41.67° C | 35% | 963.2 hPa | - | - | - | - |
| 1788520358 | 39.44° C | 36% | 963.2 hPa | - | - | - | - |
| 1788519457 | 38.33° C | 36% | 963.5 hPa | - | - | - | - |
| 1788518556 | 38.33° C | 37% | 963.7 hPa | - | - | - | - |
| 1788517656 | 38.33° C | 37% | 964 hPa | - | - | - | - |
| 1788516755 | 37.78° C | 37% | 964.1 hPa | - | - | - | - |
| 1788515854 | 36.67° C | 39% | 964.2 hPa | - | - | - | - |
| 1788514953 | 37.22° C | 39% | 964.3 hPa | - | - | - | - |
| 1788514052 | 39.44° C | 38% | 964.4 hPa | - | - | - | - |
| 1788513152 | 38.33° C | 39% | 964.4 hPa | - | - | - | - |
| 1788512251 | 38.89° C | 40% | 964.4 hPa | - | - | - | - |
| 1788511350 | 37.78° C | 41% | 964.5 hPa | - | - | - | - |
| 1788510449 | 36.67° C | 43% | 964.6 hPa | - | - | - | - |
| 1788509548 | 34.44° C | 45% | 964.7 hPa | - | - | - | - |
| 1788508648 | 30° C | 50% | 964.6 hPa | - | - | - | - |
| 1788507747 | 28.33° C | 52% | 964.7 hPa | - | - | - | - |
| 1788505964 | 26.11° C | 54% | 964.9 hPa | - | - | - | - |
| 1788505063 | 25.56° C | 55% | 964.9 hPa | - | - | - | - |
| 1788504162 | 24.44° C | 56% | 964.8 hPa | - | - | - | - |
| 1788503261 | 24.44° C | 56% | 964.8 hPa | - | - | - | - |
| 1788502360 | 23.33° C | 58% | 964.8 hPa | - | - | - | - |
| 1788501460 | 21.67° C | 60% | 964.7 hPa | - | - | - | - |
| 1788500559 | 21.11° C | 61% | 964.6 hPa | - | - | - | - |
| 1788499658 | 21.67° C | 60% | 964.4 hPa | - | - | - | - |
* Rain since midnight (hover to see other rain measurements)
** Current wind speed in m/s (hover to see current wind gust speed)